This is the latest recevied weather packets stored in our database for station/object KD9ZDW. If no packets are shown the sender has not sent any weather packets the latest 10 day(s).
| Time | Temp. | Humidity | Pressure | Rain* | Wind** | Luminosity | Snow |
|---|---|---|---|---|---|---|---|
| 1777847009 | 10° C | 77% | 1013.9 hPa | 0 mm | - | 36 W/m² | - |
| 1777846706 | 10° C | 77% | 1014.1 hPa | 0 mm | - | 39 W/m² | - |
| 1777846405 | 10° C | 77% | 1013.7 hPa | 0 mm | - | 29 W/m² | - |
| 1777846100 | 10° C | 76% | 1013.9 hPa | 0 mm | - | 30 W/m² | - |
| 1777845798 | 10° C | 76% | 1014 hPa | 0 mm | - | 29 W/m² | - |
| 1777845494 | 10° C | 76% | 1014 hPa | 0 mm | - | 31 W/m² | - |
| 1777845192 | 10° C | 76% | 1014.2 hPa | 0 mm | - | 35 W/m² | - |
| 1777844889 | 10° C | 77% | 1014.1 hPa | 0 mm | - | 40 W/m² | - |
| 1777844586 | 10° C | 76% | 1014.1 hPa | 0 mm | - | 41 W/m² | - |
| 1777844284 | 10° C | 76% | 1014.2 hPa | 0 mm | - | 48 W/m² | - |
| 1777843981 | 10° C | 75% | 1014.3 hPa | 0 mm | - | 48 W/m² | - |
| 1777843678 | 10.56° C | 76% | 1014.6 hPa | 0 mm | - | 48 W/m² | - |
| 1777843376 | 10° C | 76% | 1014.4 hPa | 0 mm | - | 68 W/m² | - |
| 1777843073 | 10° C | 77% | 1014.8 hPa | 0 mm | - | 126 W/m² | - |
| 1777842769 | 10° C | 76% | 1014.8 hPa | 0 mm | - | 142 W/m² | - |
| 1777842464 | 10.56° C | 74% | 1015.3 hPa | 0 mm | - | 50 W/m² | - |
| 1777842162 | 10.56° C | 73% | 1015.1 hPa | 0 mm | - | 52 W/m² | - |
| 1777841862 | 11.11° C | 70% | 1015.3 hPa | 0 mm | - | 65 W/m² | - |
| 1777841559 | 11.11° C | 68% | 1015.4 hPa | 0 mm | - | 150 W/m² | - |
| 1777841255 | 11.11° C | 66% | 1015.5 hPa | 0 mm | - | 230 W/m² | - |
| 1777840953 | 11.11° C | 67% | 1015.8 hPa | 0 mm | - | 238 W/m² | - |
| 1777840651 | 11.67° C | 65% | 1015.5 hPa | 0 mm | - | 234 W/m² | - |
| 1777840348 | 11.11° C | 64% | 1015.8 hPa | 0 mm | - | 278 W/m² | - |
| 1777840045 | 11.67° C | 65% | 1015.8 hPa | 0 mm | - | 139 W/m² | - |
| 1777839743 | 11.67° C | 63% | 1015.8 hPa | 0 mm | - | 163 W/m² | - |
* Rain latest hour (hover to see other rain measurements)
** Current wind speed in m/s (hover to see current wind gust speed)